sat.trackr.live / text

‹ back to catalog

STARLINK-11247 [DTC]

NORAD 60720 · 2024-152A

PAYLOAD ACTIVE UNKNOWN

§ Identity

Operator
Country
US
Launch date
2024-08-28
Launch site
AFETR
Launch vehicle
Mass (kg)
RCS (m²)

Purposes: comms

External: N2YO · Heavens-Above · Gunter

§ Orbital elements

Epoch: 2026-05-25T02:40:10.908768Z

Period
91.74 min
Inclination
53.1587°
Eccentricity
0.0000660
Mean motion
15.69710792 rev/d
Perigee alt
359.3 km
Apogee alt
360.2 km
Semi-major
6,737.9 km
B*
1.3409e-5
RAAN
99.8429°
Arg perigee
105.0167°
Mean anomaly
255.0924°
Rev number
10,083

§ Raw data

STARLINK-11247 [DTC]1 60720U 24152A   26145.11123737  .00001037  00000+0  13409-4 0  99932 60720  53.1587  99.8429 0000660 105.0167 255.0924 15.69710792100835

JSON: /api/v1/satellites/60720 · /tle

For live sub-satellite position, see the globe view (requires WebGL).

§ Visibility from observer

Set your observer location to see the next 7 days of passes ≥ 10°. The values pass through the URL so the page stays shareable.

No JS? Fill the form by hand. The geolocation button needs JavaScript.